Location: Antichan
(42.9728°N, 0.6667°E)
Time: 17:41:59
(UTC+00:00)

Cosmos 2233 Rocket - Pass Details

Date: 15 August 2020
Orbit: 952 x 991 km, 82.9° (Epoch: 17 September)

Event Time Altitude Azimuth Distance (km) Brightness Sun altitude
Exits shadow 22:34:05 84° 63° (ENE) 1,003 3.9 -29.9°
Drops below altitude 10° 22:40:19 10° 9° (N) 2,761 7.0 -30.4°
Sets 22:42:50 0° 9° (N) 3,711 7.9 -30.5°
